EW9154 Weather Reports


time (UTC)temp
C
wind
direction
speed
KPH
gust
KPH
rain 1hr
cm
rain 24hr
cm
rain mn
cm
humidity
%
barometer
mb
20220927003114 14 219 0.0 0.0 0.00 0.00 0.00 51 1030.7
20220927002841 14 162 0.0 0.0 0.00 0.00 0.00 50 1030.6
20220927002044 14 162 0.0 0.0 0.00 0.00 0.00 50 1030.6
20220927001539 14 162 0.0 0.0 0.00 0.00 0.00 50 1030.6
20220927001039 15 162 0.0 0.0 0.00 0.00 0.00 49 1030.6
20220927000525 15 163 0.0 0.0 0.00 0.00 0.00 49 1030.6
20220927000022 15 163 0.0 0.0 0.00 0.00 0.00 48 1030.5
20220926235730 15 152 0.0 0.0 0.00 0.00 0.00 48 1030.7
20220926235608 15 163 0.0 0.0 0.00 0.00 0.00 48 1030.5
20220926234428 15 139 0.0 0.0 0.00 0.00 0.00 48 1030.6
20220926233926 16 224 0.0 0.0 0.00 0.00 0.00 47 1030.6
20220926233657 16 224 0.0 0.0 0.00 0.00 0.00 46 1030.6
20220926233154 16 224 0.0 0.0 0.00 0.00 0.00 46 1030.6
20220926232357 16 252 0.0 0.0 0.00 0.00 0.00 45 1030.5
20220926231853 16 253 0.0 3.2 0.00 0.00 0.00 44 1030.6
20220926231355 16 114 0.0 3.2 0.00 0.00 0.00 43 1030.5
20220926230844 16 75 0.0 6.4 0.00 0.00 0.00 42 1030.5
20220926230341 17 138 0.0 6.4 0.00 0.00 0.00 42 1030.5
20220926230027 17 199 0.0 6.4 0.00 0.00 0.00 40 1030.5
20220926225901 17 182 0.0 6.4 0.00 0.00 0.00 40 1030.6
20220926225409 17 87 0.0 3.2 0.00 0.00 0.00 39 1030.6
20220926224249 18 187 0.0 1.6 0.00 0.00 0.00 39 1030.6
20220926224233 18 224 0.0 1.6 0.00 0.00 0.00 38 1030.5
20220926223501 18 77 0.0 4.8 0.00 0.00 0.00 37 1030.5
20220926222936 18 303 0.0 4.8 0.00 0.00 0.00 37 1030.6
20220926222149 18 198 0.0 1.6 0.00 0.00 0.00 36 1030.6
20220926221647 18 264 0.0 1.6 0.00 0.00 0.00 34 1030.5
20220926221128 18 281 0.0 4.8 0.00 0.00 0.00 35 1030.6
20220926220608 18 88 0.0 4.8 0.00 0.00 0.00 35 1030.6
20220926220046 18 218 0.0 6.4 0.00 0.00 0.00 34 1030.6
20220926215528 18 332 0.0 6.4 0.00 0.00 0.00 35 1030.7
20220926215028 18 205 0.0 6.4 0.00 0.00 0.00 34 1030.6
20220926214508 18 235 0.0 1.6 0.00 0.00 0.00 35 1030.6
20220926213949 18 47 0.0 1.6 0.00 0.00 0.00 35 1030.6
20220926213447 18 214 0.0 11.3 0.00 0.00 0.00 35 1030.6
20220926212949 18 273 0.0 11.3 0.00 0.00 0.00 35 1030.6
20220926212424 18 42 0.0 16.1 0.00 0.00 0.00 35 1030.6
20220926211903 18 221 0.0 16.1 0.00 0.00 0.00 33 1030.5
20220926211338 18 187 0.0 1.6 0.00 0.00 0.00 33 1030.5
20220926210824 18 93 0.0 1.6 0.00 0.00 0.00 34 1030.6
20220926210324 18 168 0.0 17.7 0.00 0.00 0.00 34 1030.6
20220926205820 18 109 0.0 17.7 0.00 0.00 0.00 34 1030.5
20220926205320 18 46 0.0 1.6 0.00 0.00 0.00 34 1030.5
20220926204817 18 162 0.0 3.2 0.00 0.00 0.00 33 1030.5
20220926204316 18 108 0.0 4.8 0.00 0.00 0.00 34 1030.5
20220926203816 18 327 0.0 4.8 0.00 0.00 0.00 35 1030.5
20220926203307 18 244 0.0 4.8 0.00 0.00 0.00 34 1030.6
20220926202808 18 226 0.0 4.8 0.00 0.00 0.00 33 1030.5
20220926202517 18 119 0.0 1.6 0.00 0.00 0.00 34 1030.5
20220926201740 18 317 0.0 0.0 0.00 0.00 0.00 34 1030.5
20220926201509 18 226 0.0 1.6 0.00 0.00 0.00 35 1030.5
20220926200738 18 178 0.0 1.6 0.00 0.00 0.00 35 1030.5
20220926200709 18 279 0.0 1.6 0.00 0.00 0.00 34 1030.5
20220926195656 18 240 0.0 1.6 0.00 0.00 0.00 34 1030.6
20220926195158 19 217 0.0 3.2 0.00 0.00 0.00 35 1030.4
20220926194905 18 259 0.0 20.9 0.00 0.00 0.00 35 1030.4
20220926194343 18 239 0.0 20.9 0.00 0.00 0.00 34 1030.5
20220926193820 18 340 0.0 1.6 0.00 0.00 0.00 35 1030.6
20220926193044 18 196 0.0 1.6 0.00 0.00 0.00 35 1030.6
20220926192544 18 172 0.0 1.6 0.00 0.00 0.00 36 1030.6
20220926192312 18 238 0.0 1.6 0.00 0.00 0.00 35 1030.7
20220926191542 18 193 0.0 1.6 0.00 0.00 0.00 38 1030.8
20220926191018 18 107 0.0 0.0 0.00 0.00 0.00 39 1030.9
20220926190453 18 331 0.0 9.7 0.00 0.00 0.00 40 1030.9
20220926190202 18 285 0.0 9.7 0.00 0.00 0.00 40 1031.0
20220926185701 17 262 0.0 1.6 0.00 0.00 0.00 40 1031.0
20220926184930 17 212 0.0 8.0 0.00 0.00 0.00 40 1031.1
20220926184403 17 259 0.0 8.0 0.00 0.00 0.00 40 1031.1
20220926184348 17 187 0.0 6.4 0.00 0.00 0.00 42 1031.0
20220926183616 17 316 0.0 4.8 0.00 0.00 0.00 44 1031.1
20220926182847 17 212 0.0 1.6 0.00 0.00 0.00 47 1031.3
20220926182842 17 57 0.0 4.8 0.00 0.00 0.00 44 1031.1
20220926182108 16 263 0.0 1.6 0.00 0.00 0.00 45 1031.3
20220926181607 16 169 0.0 16.1 0.00 0.00 0.00 44 1031.2
20220926180808 16 217 0.0 16.1 0.00 0.00 0.00 44 1031.2
20220926180537 16 114 0.0 3.2 0.00 0.00 0.00 45 1031.2
20220926175748 17 203 0.0 0.0 0.00 0.00 0.00 43 1031.2
20220926175520 17 223 0.0 0.0 0.00 0.00 0.00 44 1031.3
20220926174751 16 284 0.0 3.2 0.00 0.00 0.00 45 1031.2
20220926174747 16 100 0.0 1.6 0.00 0.00 0.00 45 1031.2
20220926173949 16 306 0.0 1.6 0.00 0.00 0.00 43 1031.2
20220926173214 16 52 0.0 6.4 0.00 0.00 0.00 46 1031.3
20220926172919 16 96 0.0 6.4 0.00 0.00 0.00 46 1031.3
20220926172136 16 94 0.0 1.6 0.00 0.00 0.00 45 1031.5
20220926171607 16 49 0.0 1.6 0.00 0.00 0.00 45 1031.4
20220926171104 16 36 0.0 1.6 0.00 0.00 0.00 45 1031.4
20220926171053 16 304 0.0 4.8 0.00 0.00 0.00 47 1031.4
20220926170525 15 5 0.0 8.0 0.00 0.00 0.00 46 1031.5
20220926165453 15 255 0.0 8.0 0.00 0.00 0.00 47 1031.5
20220926164956 15 175 0.0 1.6 0.00 0.00 0.00 47 1031.5
20220926164430 15 309 0.0 4.8 0.00 0.00 0.00 47 1031.5
20220926163901 15 309 0.0 1.6 0.00 0.00 0.00 49 1031.5
20220926163713 15 216 0.0 6.4 0.00 0.00 0.00 48 1031.5
20220926163605 14 96 0.0 6.4 0.00 0.00 0.00 50 1031.5
20220926162327 14 57 0.0 8.0 0.00 0.00 0.00 50 1031.5
20220926162044 14 117 0.0 8.0 0.00 0.00 0.00 48 1031.5
20220926161247 14 312 0.0 8.0 0.00 0.00 0.00 50 1031.6
20220926161243 14 82 0.0 8.0 0.00 0.00 0.00 50 1031.6
20220926160214 14 39 0.0 1.6 0.00 0.00 0.00 53 1031.5
20220926155648 14 188 0.0 1.6 0.00 0.00 0.00 51 1031.7
20220926155621 13 162 0.0 6.4 0.00 0.00 0.00 51 1031.6
20220926154622 13 110 0.0 6.4 0.00 0.00 0.00 52 1031.5
20220926154055 13 46 0.0 6.4 0.00 0.00 0.00 53 1031.6
20220926153739 13 94 0.0 4.8 0.00 0.00 0.00 55 1031.5
20220926153615 13 301 0.0 6.4 0.00 0.00 0.00 53 1031.6
20220926152458 13 336 0.0 4.8 0.00 0.00 0.00 55 1031.6
20220926151953 13 171 0.0 1.6 0.00 0.00 0.00 57 1031.6
20220926151448 13 198 0.0 1.6 0.00 0.00 0.00 57 1031.5
20220926151218 13 291 0.0 3.2 0.00 0.00 0.00 56 1031.5
20220926151058 13 317 0.0 3.2 0.00 0.00 0.00 57 1031.5
20220926145923 13 276 0.0 6.4 0.00 0.00 0.00 58 1031.4
20220926145422 13 82 0.0 1.6 0.00 0.00 0.00 61 1031.4
20220926144854 13 290 0.0 1.6 0.00 0.00 0.00 62 1031.4
20220926144336 12 197 0.0 1.6 0.00 0.00 0.00 62 1031.4
20220926144055 12 140 0.0 1.6 0.00 0.00 0.00 63 1031.5
20220926143932 12 243 0.0 1.6 0.00 0.00 0.00 63 1031.4
20220926142823 12 340 0.0 1.6 0.00 0.00 0.00 64 1031.5
20220926142538 11 263 0.0 1.6 0.00 0.00 0.00 64 1031.3
20220926142305 12 147 0.0 1.6 0.00 0.00 0.00 64 1031.5
20220926141532 11 297 0.0 0.0 0.00 0.00 0.00 66 1031.3
20220926141417 11 334 0.0 1.6 0.00 0.00 0.00 67 1031.3
20220926140505 11 153 0.0 1.6 0.00 0.00 0.00 67 1031.2
20220926135707 11 96 0.0 1.6 0.00 0.00 0.00 69 1031.2
20220926135513 10 261 0.0 1.6 0.00 0.00 0.00 72 1031.1
20220926135407 10 96 0.0 0.0 0.00 0.00 0.00 73 1031.1
20220926134352 10 192 0.0 1.6 0.00 0.00 0.00 74 1031.1
20220926133849 10 233 0.0 0.0 0.00 0.00 0.00 74 1031.0
20220926133114 9 233 0.0 0.0 0.00 0.00 0.00 75 1030.9
20220926132550 9 252 0.0 0.0 0.00 0.00 0.00 76 1030.8
20220926132024 9 277 0.0 0.0 0.00 0.00 0.00 76 1030.8
20220926131523 8 168 0.0 0.0 0.00 0.00 0.00 77 1030.7
20220926131023 8 208 0.0 0.0 0.00 0.00 0.00 77 1030.7
20220926130526 8 208 0.0 0.0 0.00 0.00 0.00 77 1030.7
20220926125957 8 221 0.0 0.0 0.00 0.00 0.00 77 1030.7
20220926125724 8 219 0.0 0.0 0.00 0.00 0.00 78 1030.6
20220926124951 8 219 0.0 0.0 0.00 0.00 0.00 78 1030.6
20220926124439 8 222 0.0 0.0 0.00 0.00 0.00 78 1030.6
20220926123941 8 219 0.0 1.6 0.00 0.00 0.00 78 1030.5
20220926123416 8 252 0.0 1.6 0.00 0.00 0.00 78 1030.5
20220926122849 8 254 0.0 3.2 0.00 0.00 0.00 78 1030.4
20220926122622 8 287 0.0 3.2 0.00 0.00 0.00 78 1030.4
20220926121834 8 157 0.0 0.0 0.00 0.00 0.00 78 1030.3
20220926121335 8 163 0.0 0.0 0.00 0.00 0.00 78 1030.3
20220926120826 8 163 0.0 0.0 0.00 0.00 0.00 78 1030.3
20220926120559 8 165 0.0 0.0 0.00 0.00 0.00 78 1030.2
20220926115806 8 201 0.0 0.0 0.00 0.00 0.00 77 1030.2
20220926115508 8 220 0.0 0.0 0.00 0.00 0.00 77 1030.1
20220926115351 8 191 0.0 0.0 0.00 0.00 0.00 77 1030.1
20220926114233 8 200 0.0 0.0 0.00 0.00 0.00 77 1030.1
20220926113735 8 234 0.0 0.0 0.00 0.00 0.00 77 1030.0
20220926113442 8 244 0.0 0.0 0.00 0.00 0.00 77 1030.0
20220926112711 8 213 0.0 0.0 0.00 0.00 0.00 77 1030.0
20220926112148 8 213 0.0 0.0 0.00 0.00 0.00 77 1029.9
20220926111647 8 216 0.0 0.0 0.00 0.00 0.00 77 1030.0
20220926111641 8 198 0.0 0.0 0.00 0.00 0.00 77 1029.9
20220926110615 8 203 0.0 0.0 0.00 0.00 0.00 77 1029.9
20220926110500 8 242 0.0 0.0 0.00 0.00 0.00 76 1029.9
20220926110344 8 242 0.0 0.0 0.00 0.00 0.00 76 1029.9
20220926105600 8 300 0.0 0.0 0.00 0.00 0.00 76 1029.8
20220926104556 8 238 0.0 0.0 0.00 0.00 0.00 76 1029.8
20220926104055 8 241 0.0 0.0 0.00 0.00 0.00 76 1029.7
20220926103531 8 246 0.0 0.0 0.00 0.00 0.00 76 1029.7
20220926103032 8 265 0.0 0.0 0.00 0.00 0.00 75 1029.6
20220926102746 8 267 0.0 0.0 0.00 0.00 0.00 75 1029.6
20220926102200 8 242 0.0 0.0 0.00 0.00 0.00 75 1029.6
20220926102035 8 267 0.0 0.0 0.00 0.00 0.00 75 1029.6
20220926101811 8 215 0.0 0.0 0.00 0.00 0.00 75 1029.4
20220926100427 8 255 0.0 0.0 0.00 0.00 0.00 75 1029.6
20220926100153 8 267 0.0 0.0 0.00 0.00 0.00 75 1029.6
20220926095420 8 209 0.0 0.0 0.00 0.00 0.00 75 1029.4
20220926094921 8 209 0.0 0.0 0.00 0.00 0.00 75 1029.4
20220926094416 8 180 0.0 0.0 0.00 0.00 0.00 74 1029.4
20220926093912 8 180 0.0 0.0 0.00 0.00 0.00 74 1029.4
20220926093415 8 180 0.0 0.0 0.00 0.00 0.00 74 1029.4
20220926093136 8 178 0.0 0.0 0.00 0.00 0.00 74 1029.4
20220926092632 8 196 0.0 0.0 0.00 0.00 0.00 74 1029.3
20220926092517 8 209 0.0 0.0 0.00 0.00 0.00 73 1029.3
20220926091623 8 229 0.0 0.0 0.00 0.00 0.00 74 1029.2
20220926090850 8 229 0.0 0.0 0.00 0.00 0.00 74 1029.2
20220926090350 8 229 0.0 0.0 0.00 0.00 0.00 74 1029.1
20220926090119 8 229 0.0 0.0 0.00 0.00 0.00 73 1029.1
20220926085616 8 215 0.0 0.0 0.00 0.00 0.00 73 1029.1
20220926084825 8 215 0.0 0.0 0.00 0.00 0.00 73 1029.1
20220926084259 8 257 0.0 0.0 0.00 0.00 0.00 73 1029.1
20220926084007 8 254 0.0 0.0 0.00 0.00 0.00 72 1029.0
20220926083841 8 253 0.0 0.0 0.00 0.00 0.00 72 1029.1
20220926082728 8 255 0.0 0.0 0.00 0.00 0.00 72 1029.0
20220926082201 9 255 0.0 0.0 0.00 0.00 0.00 71 1029.0
20220926081701 9 255 0.0 0.0 0.00 0.00 0.00 71 1029.1
20220926081157 9 255 0.0 0.0 0.00 0.00 0.00 71 1029.0
20220926080650 9 250 0.0 0.0 0.00 0.00 0.00 70 1029.0
20220926080124 9 250 0.0 0.0 0.00 0.00 0.00 69 1029.1
20220926075605 9 250 0.0 0.0 0.00 0.00 0.00 69 1029.0
20220926075332 10 250 0.0 0.0 0.00 0.00 0.00 68 1029.0
20220926075010 10 267 0.0 0.0 0.00 0.00 0.00 68 1028.9
20220926074616 10 267 0.0 0.0 0.00 0.00 0.00 68 1029.0
20220926073948 10 267 0.0 0.0 0.00 0.00 0.00 67 1029.0
20220926073554 10 267 0.0 0.0 0.00 0.00 0.00 68 1029.0
20220926072426 10 267 0.0 0.0 0.00 0.00 0.00 67 1029.0
20220926071923 10 267 0.0 0.0 0.00 0.00 0.00 67 1029.0
20220926071420 10 275 0.0 0.0 0.00 0.00 0.00 66 1029.0
20220926070919 10 275 0.0 0.0 0.00 0.00 0.00 66 1029.0
20220926070415 10 275 0.0 0.0 0.00 0.00 0.00 65 1029.0
20220926065910 10 275 0.0 0.0 0.00 0.00 0.00 65 1028.9
20220926065855 10 250 0.0 0.0 0.00 0.00 0.00 64 1028.9
20220926064846 10 250 0.0 0.0 0.00 0.00 0.00 65 1028.9
20220926064700 10 251 0.0 0.0 0.00 0.00 0.00 64 1028.9
20220926064552 10 251 0.0 0.0 0.00 0.00 0.00 64 1028.9
20220926063524 10 252 0.0 0.0 0.00 0.00 0.00 64 1028.9
20220926063241 10 252 0.0 0.0 0.00 0.00 0.00 64 1028.8
20220926062559 11 191 0.0 0.0 0.00 0.00 0.00 63 1028.9
20220926062238 11 191 0.0 0.0 0.00 0.00 0.00 63 1028.8
20220926061734 11 191 0.0 0.0 0.00 0.00 0.00 63 1028.8
20220926061713 11 191 0.0 0.0 0.00 0.00 0.00 63 1028.9
20220926060141 11 189 0.0 0.0 0.00 0.00 0.00 62 1028.9
20220926055622 11 186 0.0 0.0 0.00 0.00 0.00 62 1028.8
20220926055121 11 153 0.0 0.0 0.00 0.00 0.00 62 1028.8
20220926054557 11 132 0.0 0.0 0.00 0.00 0.00 62 1028.8
20220926054259 11 156 0.0 0.0 0.00 0.00 0.00 62 1028.9
20220926053525 11 252 0.0 0.0 0.00 0.00 0.00 62 1028.9
20220926053025 11 221 0.0 0.0 0.00 0.00 0.00 62 1028.9
20220926052500 11 221 0.0 0.0 0.00 0.00 0.00 62 1028.9
20220926051918 11 236 0.0 0.0 0.00 0.00 0.00 62 1028.9
20220926051413 11 236 0.0 0.0 0.00 0.00 0.00 62 1029.0
20220926051146 11 242 0.0 0.0 0.00 0.00 0.00 62 1028.9
20220926050410 11 242 0.0 0.0 0.00 0.00 0.00 61 1028.9
20220926050141 12 180 0.0 0.0 0.00 0.00 0.00 62 1028.9
20220926045409 12 178 0.0 0.0 0.00 0.00 0.00 61 1028.9
20220926044908 12 223 0.0 0.0 0.00 0.00 0.00 61 1028.9
20220926044343 12 223 0.0 0.0 0.00 0.00 0.00 61 1028.9
20220926044112 12 231 0.0 0.0 0.00 0.00 0.00 60 1028.8
20220926043340 12 231 0.0 0.0 0.00 0.00 0.00 60 1028.8
20220926042820 12 188 0.0 0.0 0.00 0.00 0.00 59 1028.8
20220926042320 12 185 0.0 0.0 0.00 0.00 0.00 58 1028.8
20220926041810 12 197 0.0 0.0 0.00 0.00 0.00 58 1028.8
20220926041308 12 197 0.0 0.0 0.00 0.00 0.00 57 1028.8
20220926041025 12 197 0.0 1.6 0.00 0.00 0.00 57 1028.8
20220926040250 13 196 0.0 1.6 0.00 0.00 0.00 56 1028.8
20220926035728 13 188 0.0 0.0 0.00 0.00 0.00 56 1028.9
20220926035206 13 161 0.0 0.0 0.00 0.00 0.00 55 1028.8
20220926034706 13 161 0.0 0.0 0.00 0.00 0.00 55 1028.8
20220926034205 13 162 0.0 0.0 0.00 0.00 0.00 54 1028.7
20220926033636 13 177 0.0 0.0 0.00 0.00 0.00 54 1028.7
20220926033132 13 181 0.0 0.0 0.00 0.00 0.00 54 1028.7
20220926032631 13 163 0.0 0.0 0.00 0.00 0.00 54 1028.7
20220926032106 13 150 0.0 0.0 0.00 0.00 0.00 54 1028.7
20220926031606 13 266 0.0 0.0 0.00 0.00 0.00 54 1028.7
20220926031358 13 198 0.0 1.6 0.00 0.00 0.00 54 1028.6
20220926031250 13 213 0.0 3.2 0.00 0.00 0.00 54 1028.7
20220926025951 13 88 0.0 4.8 0.00 0.00 0.00 55 1028.7
20220926025425 13 331 0.0 4.8 0.00 0.00 0.00 55 1028.7
20220926025129 13 134 0.0 0.0 0.00 0.00 0.00 55 1028.6
20220926024336 14 115 0.0 3.2 0.00 0.00 0.00 55 1028.6
20220926023829 14 332 0.0 3.2 0.00 0.00 0.00 56 1028.7
20220926023333 14 268 0.0 0.0 0.00 0.00 0.00 55 1028.7
20220926022804 14 306 0.0 0.0 0.00 0.00 0.00 55 1028.6
20220926022305 14 190 0.0 0.0 0.00 0.00 0.00 55 1028.6
20220926022245 14 171 0.0 1.6 0.00 0.00 0.00 54 1028.6
20220926021200 14 223 0.0 1.6 0.00 0.00 0.00 54 1028.6
20220926020930 14 188 0.0 1.6 0.00 0.00 0.00 54 1028.6
20220926020153 15 212 0.0 0.0 0.00 0.00 0.00 54 1028.3
20220926015855 15 171 0.0 0.0 0.00 0.00 0.00 53 1028.3
20220926015123 15 116 0.0 0.0 0.00 0.00 0.00 53 1028.3
20220926014602 15 236 0.0 1.6 0.00 0.00 0.00 53 1028.2
20220926014329 15 296 0.0 0.0 0.00 0.00 0.00 52 1028.2
20220926013556 15 208 0.0 0.0 0.00 0.00 0.00 52 1028.1
20220926013326 15 271 0.0 0.0 0.00 0.00 0.00 52 1028.1
20220926012526 15 174 0.0 1.6 0.00 0.00 0.00 52 1028.0
20220926012024 15 199 0.0 1.6 0.00 0.00 0.00 51 1028.0
20220926011511 15 196 0.0 3.2 0.00 0.00 0.00 51 1028.0
20220926011242 15 236 0.0 3.2 0.00 0.00 0.00 50 1027.8
20220926010742 15 250 0.0 1.6 0.00 0.00 0.00 50 1027.7
20220926010506 15 190 0.0 1.6 0.00 0.00 0.00 51 1027.8
20220926005439 16 184 0.0 1.6 0.00 0.00 0.00 50 1027.6
20220926004913 16 296 0.0 1.6 0.00 0.00 0.00 49 1027.5
20220926004816 16 197 0.0 6.4 0.00 0.00 0.00 48 1027.4
20220926004703 16 203 0.0 1.6 0.00 0.00 0.00 48 1027.5
20220926003310 16 306 0.0 6.4 0.00 0.00 0.00 47 1027.4